Location: *
(46.5000°N, 6.3667°E)
Time: 07:42:20
(UTC+00:00)

Daily predictions for brighter satellites

Satellite Brightness Start Highest point End
(mag) Time Altitude Azimuth Time Altitude Azimuth Time Altitude Azimuth
Starlink V 4.0 17:03:48 10° NW 17:06:49 31° NNE 17:09:50 10° ENE
SL-8 R/B 3.8 17:02:13 10° W 17:07:03 78° N 17:11:53 10° ENE
Starlink H 4.0 17:06:15 10° NW 17:09:17 32° NNE 17:12:19 10° E
Cosmos 1689 Rocket 4.5 17:07:38 10° NNW 17:10:05 24° WNW 17:12:32 10° SW
Starlink F 4.0 17:08:42 10° NW 17:11:45 32° NNE 17:14:47 10° E
Cosmos 2366 rocket 4.1 17:06:44 10° S 17:12:48 58° E 17:18:59 10° NNE
BREEZE-M DEB (TANK) 2.3 17:10:54 10° SW 17:13:16 55° SSE 17:15:43 10° ENE
Starlink G 4.0 17:11:08 10° NW 17:14:12 33° NNE 17:17:12 10° E
Okean O Rocket 4.1 17:10:46 10° SSW 17:14:35 28° W 17:18:25 10° NW
ERBS 4.4 17:13:57 10° WNW 17:16:20 18° NNW 17:18:42 10° NNE
Starlink L 3.9 17:13:35 10° NW 17:16:39 33° NNE 17:19:33 11° E
Cosmos 1328 3.8 17:13:05 10° S 17:17:03 63° E 17:21:02 10° NNE
ADEOS Rocket 4.5 17:12:56 10° NE 17:18:14 22° E 17:23:49 10° SE
USA 234 3.3 17:12:02 10° ESE 17:18:32 73° NNE 17:25:04 10° NW
Starlink A 3.9 17:16:02 10° NW 17:19:07 34° NNE 17:21:55 12° E
FengYun 1-2 T 4.3 17:14:31 10° SSE 17:20:04 61° ENE 17:25:40 10° N
SKYMED 2 4.0 17:16:09 10° NNE 17:20:16 40° E 17:24:22 10° SSE
Starlink R 3.9 17:18:30 10° NW 17:21:35 35° NNE 17:24:17 13° E
ATLAS 5 CENTAUR R/B 4.1 17:20:06 10° NNW 17:22:06 12° N 17:24:13 10° NNE
Cosmos 44 Rocket 3.8 17:18:43 10° S 17:23:11 40° ESE 17:27:37 10° NE
Starlink K 3.8 17:20:56 10° NW 17:24:03 36° NNE 17:26:38 13° E
Starlink M 3.8 17:23:22 10° NW 17:26:30 36° NNE 17:28:59 14° E
CSL-04 Rocket 4.1 17:22:08 10° SE 17:27:16 41° ENE 17:32:27 10° N
Okean-O 2.6 17:24:01 10° SSE 17:28:27 86° ENE 17:32:55 10° NNW
Cosmos 1455 2.8 17:26:41 10° NNW 17:30:26 60° W 17:34:08 10° S
Ariane Rocket 4.2 17:27:10 10° ESE 17:30:52 21° ENE 17:34:33 10° NNE
YAOGAN 1 2.9 17:29:11 10° SE 17:33:15 41° ENE 17:37:20 10° N
CZ-4 R/B 1.6 17:29:36 10° SSE 17:33:36 52° ENE 17:37:41 10° N
Cosmos 614 Rocket 4.5 17:28:51 10° N 17:33:43 38° ENE 17:38:34 10° SE
Meteor 2-10 Rocket 4.0 17:29:56 10° NNW 17:35:06 66° W 17:40:06 10° S
Cosmos 1703 3.4 17:31:45 10° S 17:35:43 82° W 17:39:43 10° N
USA 238 DEB 4.4 17:32:52 10° S 17:38:41 33° ESE 17:43:45 14° ENE
USA 238 4.4 17:33:00 10° S 17:38:48 33° ESE 17:43:48 14° ENE
STARLINK-67 4.1 17:38:34 10° S 17:40:29 19° SE 17:41:06 18° ESE
Cosmos 1727 Rocket 3.9 17:37:44 10° N 17:43:58 79° E 17:50:08 10° SSE
ATLAS CENTAUR R/B 2.6 17:40:37 10° NW 17:44:21 40° WSW 17:47:50 10° S
SL-8 Rocket 4.4 17:38:08 10° SSW 17:44:24 69° W 17:50:39 10° N
Starlink AS 3.2 17:43:52 10° NW 17:46:42 43° NNE 17:47:54 27° ENE
Starlink BA 3.1 17:44:05 10° NW 17:46:55 44° NNE 17:48:06 27° ENE
Starlink AU 3.1 17:44:18 10° NW 17:47:08 44° NNE 17:48:19 27° ENE
Starlink AT 3.1 17:44:33 10° NW 17:47:22 44° NNE 17:48:33 27° ENE
Starlink BB 3.1 17:44:45 10° NW 17:47:36 44° NNE 17:48:45 28° ENE
Starlink BC 3.1 17:45:00 10° NW 17:47:50 44° NNE 17:48:59 28° ENE
Starlink BK 3.1 17:45:12 10° NW 17:48:02 44° NNE 17:49:10 28° ENE
Starlink AY 3.1 17:45:26 10° NW 17:48:17 44° NNE 17:49:25 28° ENE
Starlink AW 3.1 17:45:41 10° NW 17:48:31 45° NNE 17:49:39 28° ENE
Starlink BJ 3.1 17:45:52 10° NW 17:48:42 45° NNE 17:49:49 28° ENE
Starlink AV 3.1 17:46:07 10° NW 17:48:57 45° NNE 17:50:03 29° ENE
Starlink BD 3.1 17:46:20 10° NW 17:49:11 45° NNE 17:50:16 29° ENE
Starlink BE 3.1 17:46:31 10° NW 17:49:23 45° NNE 17:50:30 29° ENE
Starlink BM 3.1 17:46:47 10° NW 17:49:38 45° NNE 17:50:42 29° ENE
Starlink AX 3.1 17:47:00 10° NW 17:49:50 45° NNE 17:50:54 30° ENE
Starlink BH 3.1 17:47:13 10° NW 17:50:04 46° NNE 17:51:07 30° ENE
Meteor 2-2 Rocket 4.5 17:44:10 10° N 17:50:04 53° ENE 17:55:53 10° SSE
Starlink AZ 3.1 17:47:28 10° NW 17:50:18 46° NNE 17:51:21 30° ENE
Starlink BG 3.1 17:47:40 10° NW 17:50:31 46° NNE 17:51:33 30° ENE
Starlink BF 3.1 17:47:55 10° NW 17:50:45 46° NNE 17:51:47 30° ENE
Starlink BL 3.1 17:48:05 10° NW 17:50:57 46° NNE 17:52:00 30° ENE
USA 102 3.7 17:45:09 10° SSE 17:51:00 59° SW 17:52:39 13° NW
Starlink AH 3.1 17:48:20 10° NW 17:51:12 46° NNE 17:52:12 31° ENE
Starlink AC 3.1 17:48:32 10° NW 17:51:23 46° NNE 17:52:23 31° ENE
Starlink X 3.0 17:48:47 10° NW 17:51:38 47° NNE 17:52:38 31° ENE
Starlink AE 3.1 17:48:54 10° NW 17:51:46 47° NNE 17:52:48 31° ENE
Starlink Z 3.0 17:49:14 10° NW 17:52:05 47° NNE 17:53:04 32° ENE
Starlink AK 3.0 17:49:29 10° NW 17:52:20 47° NNE 17:53:18 32° ENE
Cosmos 2056 Rocket 4.3 17:47:54 10° SSE 17:52:28 30° E 17:55:37 17° NE
Starlink AQ 3.0 17:49:37 10° NW 17:52:28 47° NNE 17:53:26 32° ENE
Starlink AL 3.0 17:49:41 10° NW 17:52:33 47° NNE 17:53:30 32° ENE
Starlink AD 3.0 17:49:53 10° NW 17:52:44 47° NNE 17:53:41 32° ENE
Starlink Y 3.0 17:50:18 10° NW 17:53:10 48° NNE 17:54:05 33° ENE
Starlink AG 3.0 17:50:32 10° NW 17:53:23 48° NNE 17:54:19 33° ENE
Starlink W 3.0 17:50:45 10° NW 17:53:39 48° NNE 17:54:35 33° ENE
Starlink AJ 3.0 17:50:59 10° NW 17:53:51 48° NNE 17:54:45 34° ENE
Starlink AM 3.0 17:51:26 10° NW 17:54:18 49° NNE 17:55:11 34° ENE
Starlink AP 3.0 17:51:39 10° NW 17:54:31 49° NNE 17:55:23 34° ENE
YAOGAN 6 3.6 17:51:10 10° S 17:54:43 51° W 17:58:16 10° NNW
Starlink AA 3.0 17:51:53 10° NW 17:54:45 49° NNE 17:55:37 35° ENE
Starlink AF 3.0 17:52:06 10° NW 17:54:58 49° NNE 17:55:50 35° ENE
Starlink AB 3.0 17:52:19 10° NW 17:55:11 49° NNE 17:56:02 35° ENE
Starlink AN 3.0 17:52:31 10° NW 17:55:24 49° NNE 17:56:14 35° ENE
EP 3 4.1 17:53:44 10° SSW 17:55:37 43° SE 17:55:37 43° SE
CZ-2D R/B 3.2 17:56:51 10° SSE 18:00:36 58° ENE 18:04:25 10° N
Starlink T 3.1 17:58:40 10° NW 18:01:54 56° NNE 18:02:51 38° E
SL-16 R/B 4.0 17:57:29 10° NW 18:02:31 34° WSW 18:07:32 10° SSW
Starlink N 3.1 18:00:53 10° NW 18:04:08 57° NNE 18:05:00 40° E
Cosmos 1140 Rocket 3.8 18:00:02 10° N 18:05:05 45° ENE 18:09:42 12° SE
Starlink AR 2.4 18:02:30 10° NW 18:05:13 66° NNE 18:05:32 58° ENE
Cosmos 1356 Rocket 4.3 18:01:58 10° NNW 18:05:56 51° W 18:09:56 10° S
Starlink Q 3.0 18:03:20 10° NW 18:06:36 60° NNE 18:07:22 44° E
CZ-2C R/B 4.3 18:06:48 23° ENE 18:06:50 23° ENE 18:11:09 10° N
ARGOS 4.2 18:08:17 24° ENE 18:08:17 24° ENE 18:12:26 10° N
Cosmos 1842 Rocket 3.8 18:03:43 10° NNW 18:08:13 75° W 18:12:41 10° S
COSMO-SKYMED 1 3.0 18:04:05 10° N 18:08:24 64° WNW 18:12:42 10° SSW
Starlink P 3.0 18:05:39 10° NW 18:08:55 62° NNE 18:09:35 47° E
Cosmos 1869 3.4 18:05:25 10° N 18:09:18 50° ENE 18:13:08 10° SSE
Shenzhou-11 Module 3.9 18:07:33 10° WSW 18:09:40 20° SSW 18:10:44 16° SSE
Cosmos 2227 4.2 18:04:22 10° SSW 18:10:04 70° ESE 18:15:05 14° NNE
Starlink U 3.0 18:07:58 10° WNW 18:11:13 64° NNE 18:11:49 51° E
Starlink B 2.9 18:10:18 10° WNW 18:13:34 67° NNE 18:14:04 55° ENE
Cosmos 2297 Rocket 4.2 18:10:01 10° W 18:14:27 23° NW 18:18:55 10° N
Cosmos 1603 3.7 18:10:31 10° NNW 18:16:14 86° WSW 18:21:51 10° SSE
Cosmos 2263 Rocket 2.1 18:11:06 10° S 18:16:33 61° ESE 18:20:23 20° NE
Meteor 2-12 Rocket 4.5 18:10:58 10° S 18:17:01 83° W 18:23:08 10° N
Cosmos 1821 Rocket 3.9 18:12:43 10° S 18:19:03 74° E 18:25:19 10° NNE
USA 116 3.1 18:18:07 28° N 18:19:38 84° WNW 18:22:47 10° SSW
DMSP B5D1-3 4.4 18:15:19 10° NNE 18:20:25 68° ESE 18:25:29 10° S
ISS -2.7 18:17:40 10° WNW 18:20:47 32° N 18:21:02 32° N
ATLAS 3B R/B 3.9 18:16:07 10° SSE 18:19:50 20° ESE 18:19:50 20° ESE
Cosmos 1939 Rocket 2.9 18:18:34 10° S 18:22:31 79° WSW 18:26:34 10° NNW
USA 267 3.7 18:22:01 20° NE 18:26:31 57° NNW 18:32:53 10° WSW
NOAA 11 4.5 18:22:20 10° S 18:27:47 69° WSW 18:33:16 10° NNW
Cosmos 2227 Rocket 4.4 18:24:12 10° W 18:28:22 21° NW 18:32:33 10° N
Cosmos 2221 3.1 18:25:29 10° NNW 18:29:42 58° W 18:33:55 10° S
Cosmos 1605 Rocket 4.4 18:24:51 10° SSE 18:30:38 39° E 18:36:30 10° NNE
NOSS 3-2 (C) 3.8 18:26:06 10° S 18:31:22 40° ESE 18:32:21 37° E
Starlink D 3.0 18:28:05 10° WNW 18:31:14 80° NW 18:31:14 80° NW
H-2A R/B 2.5 18:33:09 38° NE 18:33:09 38° NE 18:37:25 10° N
Starlink S 3.1 18:30:31 10° WNW 18:33:34 74° WNW 18:33:34 74° WNW
Cosmos 1076 Rocket 3.4 18:30:08 10° S 18:34:26 84° E 18:37:45 17° N
CENTAUR R/B 3.0 18:29:49 10° S 18:35:03 34° ESE 18:35:03 34° ESE
Cosmos 1954 Rocket 4.0 18:30:50 10° NNW 18:36:06 57° ENE 18:37:30 43° ESE
Starlink C 3.2 18:32:55 10° WNW 18:35:52 69° WNW 18:35:52 69° WNW
Starlink E 3.4 18:35:22 10° WNW 18:38:14 64° WNW 18:38:14 64° WNW
Starlink J 3.5 18:37:49 10° WNW 18:40:36 59° WNW 18:40:36 59° WNW
Cosmos 967 Rocket 4.4 18:35:56 10° NNW 18:42:26 68° NE 18:45:00 38° ESE
Cosmos 1943 3.4 18:37:54 10° NNW 18:43:33 69° WSW 18:49:10 10° SSE
Starlink V 3.7 18:40:15 10° WNW 18:42:57 54° W 18:42:57 54° W
Starlink H 3.8 18:42:43 10° WNW 18:45:19 50° W 18:45:19 50° W
Cosmos 2123 Rocket 3.9 18:40:16 10° N 18:46:36 79° E 18:52:52 10° SSE
Cosmos 1934 Rocket 3.8 18:40:46 10° S 18:46:48 75° E 18:52:51 10° NNE
NOSS 3-2 (A) 3.3 18:41:25 10° SSW 18:47:09 77° SE 18:49:29 41° NE
Cosmos 2058 2.9 18:43:25 10° S 18:47:34 81° W 18:48:42 47° N
Cosmos 407 Rocket 4.0 18:42:47 10° NNW 18:47:59 60° WSW 18:53:05 10° S
Starlink F 4.0 18:45:10 10° WNW 18:47:41 46° W 18:47:41 46° W
SL-8 R/B 3.6 18:45:00 10° WNW 18:49:50 75° N 18:50:09 71° NE
Starlink G 4.2 18:47:37 10° WNW 18:50:02 43° W 18:50:02 43° W
Cosmos 1190 Rocket 4.3 18:45:39 10° NNW 18:50:56 67° WSW 18:56:12 10° S
Cosmos 1371 Rocket 4.1 18:46:16 10° SSW 18:51:27 76° WNW 18:54:19 27° NNE
Starlink L 4.4 18:50:04 10° WNW 18:52:23 40° W 18:52:23 40° W
Meteor 2-20 4.5 18:51:23 10° N 18:57:01 54° ENE 18:57:01 54° ENE
USA 234 4.4 18:55:48 10° SSE 19:01:50 40° SW 19:07:55 10° WNW
Cosmos 676 Rocket 4.0 18:58:30 10° NNW 19:03:52 83° WSW 19:05:10 53° S
ADEOS Rocket 3.4 18:57:22 10° NNE 19:04:17 81° WNW 19:11:49 10° SSW
CZ-4 R/B 4.5 19:06:24 10° SW 19:08:56 16° W 19:11:32 10° NW
ATLAS 5 CENTAUR R/B 4.0 19:05:23 10° NNW 19:07:51 17° N 19:07:51 17° N
Ariane Rocket 3.4 19:04:21 10° S 19:09:22 62° WSW 19:14:26 10° NNW
USA 238 DEB 4.0 19:22:37 10° SW 19:29:15 61° NW 19:31:14 45° N
USA 238 4.0 19:22:45 10° SW 19:29:21 62° NW 19:31:17 45° N
BREEZE-M DEB (TANK) 3.9 19:21:19 10° WNW 19:31:13 71° WNW 19:31:13 71° WNW
CZ-2C R/B 4.1 19:47:51 44° NW 19:47:51 44° NW 19:51:51 10° NNW
ARGOS 4.2 19:49:47 40° NW 19:49:47 40° NW 19:53:25 10° NNW
Cosmos 2263 Rocket 4.0 19:56:17 10° WSW 20:00:54 26° NW 20:02:08 24° NNW
USA 267 4.3 20:09:21 36° NNW 20:09:21 36° NNW 20:14:40 10° WNW
ATLAS 3B R/B 3.9 20:04:02 10° SW 20:07:10 30° SW 20:07:10 30° SW
H-2A R/B 4.0 20:13:45 25° WNW 20:13:45 25° WNW 20:16:38 10° NNW
CENTAUR R/B 4.0 20:19:21 10° WSW 20:22:18 30° WSW 20:22:18 30° WSW
